This is the latest recevied weather packets stored in our database for station/object AI5BL. If no packets are shown the sender has not sent any weather packets the latest 10 day(s).
| Time | Temp. | Humidity | Pressure | Rain* | Wind** | Luminosity | Snow |
|---|---|---|---|---|---|---|---|
| 1777699543 | 11.11° C | 99% | 1016.8 hPa | 0 mm | - | 0 W/m² | - |
| 1777699241 | 11.11° C | 99% | 1016.7 hPa | 1.27 mm | - | 0 W/m² | - |
| 1777698938 | 11.11° C | 99% | 1016.6 hPa | 1.27 mm | - | 0 W/m² | - |
| 1777698636 | 11.11° C | 99% | 1016.7 hPa | 0 mm | - | 0 W/m² | - |
| 1777698332 | 11.11° C | 99% | 1016.5 hPa | 0 mm | - | 0 W/m² | - |
| 1777698029 | 10.56° C | 99% | 1016.4 hPa | 0 mm | - | 0 W/m² | - |
| 1777697725 | 10.56° C | 99% | 1016.4 hPa | 0 mm | - | 0 W/m² | - |
| 1777697423 | 10.56° C | 99% | 1016.1 hPa | 0 mm | - | 0 W/m² | - |
| 1777697119 | 10.56° C | 99% | 1016.2 hPa | 1.78 mm | - | 0 W/m² | - |
| 1777696816 | 10.56° C | 99% | 1016.6 hPa | 1.78 mm | - | 0 W/m² | - |
| 1777696513 | 11.11° C | 99% | 1016.5 hPa | 0 mm | - | 0 W/m² | - |
| 1777696209 | 10.56° C | 99% | 1016.7 hPa | 0 mm | - | 0 W/m² | - |
| 1777695905 | 10.56° C | 99% | 1016.7 hPa | 8.89 mm | - | 0 W/m² | - |
| 1777695603 | 10.56° C | 99% | 1016.9 hPa | 8.89 mm | - | 0 W/m² | - |
| 1777695300 | 10.56° C | 99% | 1017.1 hPa | 0 mm | - | 0 W/m² | - |
| 1777694996 | 10.56° C | 99% | 1017.5 hPa | 0 mm | - | 0 W/m² | - |
| 1777694693 | 10.56° C | 99% | 1017.8 hPa | 0 mm | - | 0 W/m² | - |
| 1777694389 | 10.56° C | 99% | 1017.8 hPa | 0 mm | - | 0 W/m² | - |
| 1777694086 | 10.56° C | 99% | 1017.7 hPa | 0 mm | - | 0 W/m² | - |
| 1777693784 | 10.56° C | 99% | 1018 hPa | 3.05 mm | - | 0 W/m² | - |
| 1777693482 | 10.56° C | 99% | 1017.9 hPa | 3.05 mm | - | 0 W/m² | - |
| 1777693180 | 10.56° C | 99% | 1017.7 hPa | 3.05 mm | - | 0 W/m² | - |
| 1777692877 | 10.56° C | 99% | 1017.8 hPa | 1.27 mm | - | 0 W/m² | - |
| 1777692574 | 10.56° C | 99% | 1017.5 hPa | 1.78 mm | - | 0 W/m² | - |
| 1777692270 | 10.56° C | 99% | 1017.3 hPa | 1.78 mm | - | 0 W/m² | - |
* Rain latest hour (hover to see other rain measurements)
** Current wind speed in m/s (hover to see current wind gust speed)